RH
19 19 19 19 19 18 18 17 17 16 16 15 15 14 13 13 12 12 12 12 14 15 17 19 21 24 26 26 27 29 29 29 28 24 20 16 16 16 18 18 18 18 18 18 17 16 15 14 14 17 24 31 40 44 46 48 46 50 51 49 46 43 43 47 46 47 68 72 68 74 72 77 65 44 53 60 59 62 67 66 62 65 64 58 52 50 49 47
18 18 18 18 17 16 16 15 14 14 13 13 12 11 11 10 9 9 9 9 10 10 11 13 15 17 20 22 24 28 29 30 31 30 28 25 21 17 16 17 18 19 18 18 18 18 17 16 15 14 17 21 27 35 44 48 48 48 47 45 45 44 44 45 44 43 58 67 70 75 73 78 64 42 48 53 55 57 58 59 56 60 65 59 53 49 48 46
18 17 17 16 15 14 13 12 11 10 9 9 8 8 7 7 7 7 7 7 7 7 7 8 9 11 13 15 17 22 26 28 30 30 31 31 30 26 21 17 16 18 18 19 18 18 19 18 18 15 15 15 17 23 33 44 47 46 46 45 43 45 45 43 45 44 49 59 70 76 72 76 64 41 42 45 47 52 52 53 54 56 58 55 50 48 46 44
18 17 16 14 13 12 10 9 8 7 7 6 5 5 5 5 5 5 5 5 5 5 6 6 7 8 8 9 10 13 17 21 24 26 30 31 32 33 31 27 21 18 16 18 19 19 19 19 19 18 17 16 15 17 21 31 37 40 43 38 35 43 45 43 45 43 48 54 61 72 72 76 72 46 38 43 44 46 48 50 52 54 54 52 48 45 44 42
17 16 15 13 11 9 8 7 6 6 5 5 4 5 4 5 5 5 5 5 6 5 6 6 6 7 8 8 8 9 11 14 14 17 24 27 31 33 35 36 32 27 21 17 17 18 19 19 20 19 19 18 17 16 15 19 22 30 34 27 28 39 42 44 46 43 46 51 52 60 69 79 78 51 38 44 42 41 44 45 50 53 57 56 50 44 41 41
17 16 14 11 10 8 7 6 5 5 4 4 5 5 5 6 6 6 6 6 7 7 7 7 6 7 7 7 8 8 9 11 9 11 15 19 24 29 33 36 37 36 32 25 19 17 17 18 20 20 20 20 19 19 16 15 17 21 23 18 21 31 39 44 47 47 47 49 45 48 66 71 61 46 42 43 40 40 40 42 52 61 65 58 47 42 40 39
17 15 13 11 9 7 6 5 5 5 5 5 5 6 7 7 8 8 8 8 8 9 8 8 8 8 8 8 8 7 8 8 7 8 11 13 16 20 25 30 35 37 37 36 30 23 18 16 18 19 20 20 20 20 19 18 17 17 15 13 14 21 34 44 47 52 56 51 43 57 80 66 43 42 44 43 42 42 40 41 46 52 56 50 42 41 39 38
18 15 13 11 9 7 6 5 5 5 5 7 7 8 8 8 9 8 8 8 8 8 8 8 8 8 8 9 9 9 9 8 7 7 9 9 11 14 17 22 27 32 36 38 39 35 27 20 16 17 18 20 20 21 22 22 20 17 14 13 13 15 25 36 42 48 52 48 45 66 79 54 39 45 44 43 44 42 42 44 42 41 43 43 41 41 39 38
18 15 12 10 8 7 6 6 5 6 7 7 8 9 10 10 9 8 8 8 7 7 8 8 8 9 9 9 10 10 10 8 9 9 9 9 10 11 12 15 18 24 30 34 39 41 39 32 24 18 16 18 19 20 22 24 22 18 16 15 14 14 17 23 31 39 43 44 46 53 52 39 39 45 43 43 44 42 42 44 43 40 41 42 41 41 41 39
17 14 12 10 8 7 6 6 6 7 8 9 10 11 11 11 9 9 8 8 8 9 10 10 11 12 12 12 11 11 10 9 9 9 10 11 13 14 12 12 13 16 20 27 33 38 42 42 37 28 20 16 17 19 20 22 21 19 18 18 16 15 15 15 19 26 32 39 42 36 32 34 39 42 40 40 43 43 42 43 43 41 41 41 42 42 43 42
17 14 12 10 8 7 6 6 7 8 9 10 11 11 11 10 9 9 9 10 11 12 13 14 15 16 15 14 13 13 11 10 9 10 11 12 13 16 16 14 13 13 14 18 23 30 37 42 44 39 30 20 15 16 18 20 19 20 20 19 18 17 17 16 14 16 19 26 30 25 23 27 35 35 29 34 43 41 40 43 41 41 41 39 41 43 44 44
18 14 11 10 8 7 7 6 7 8 9 11 11 10 9 8 9 9 11 12 13 15 16 18 18 19 19 16 15 14 12 11 10 10 11 13 14 15 16 17 16 14 14 14 16 21 28 35 41 44 42 33 24 19 17 18 18 20 20 18 18 17 18 18 14 13 14 17 18 20 22 18 20 18 16 31 39 35 39 40 36 39 42 39 39 43 44 44
17 14 11 9 8 7 7 6 7 8 10 10 9 9 9 9 10 12 13 15 16 19 20 22 22 23 23 20 19 16 13 13 13 12 12 13 15 14 15 16 17 16 14 14 15 16 19 26 34 40 46 43 36 30 19 15 17 18 19 19 19 19 19 19 16 15 14 15 14 15 18 11 6 6 13 27 28 28 33 31 29 33 38 40 40 43 43 42
17 14 11 9 8 7 6 7 8 9 10 10 9 9 10 12 14 16 17 19 20 22 24 26 26 26 26 25 24 19 15 15 16 16 16 15 15 16 16 15 16 16 14 14 15 15 15 18 25 33 41 44 44 40 27 16 15 17 18 18 19 18 18 18 17 16 15 16 15 14 14 9 7 6 10 17 15 20 24 20 22 25 31 37 40 43 41 41
17 14 11 9 8 7 7 7 9 11 11 10 9 10 13 17 20 22 23 24 26 27 28 29 30 32 31 30 32 29 23 20 19 20 20 20 20 20 20 19 18 17 15 14 13 15 16 15 18 24 32 40 45 45 37 26 18 14 16 17 18 18 17 18 18 16 17 17 17 18 13 8 10 8 9 11 9 11 14 14 18 21 25 31 37 40 38 38
17 13 11 9 8 7 7 8 10 12 11 10 11 15 19 22 25 27 29 31 32 33 34 34 37 39 38 38 40 40 37 32 28 30 32 31 30 28 26 26 25 23 19 15 13 13 15 15 16 18 25 32 40 46 43 38 30 19 15 14 15 16 16 18 18 16 17 18 19 18 13 10 11 12 11 10 8 7 7 9 14 17 18 22 31 33 31 34
17 13 10 9 8 7 8 10 12 13 12 13 16 21 26 29 32 34 35 39 43 46 47 47 47 48 51 52 50 49 51 50 47 47 49 47 45 42 37 35 33 30 26 21 16 12 12 15 16 15 18 26 34 42 45 44 40 29 17 12 13 15 16 17 17 16 16 18 19 16 13 12 12 13 14 12 11 8 5 5 8 12 13 16 24 25 24 27
17 12 10 9 8 8 9 11 14 15 15 18 24 31 34 34 33 30 29 34 38 41 44 45 44 49 55 55 58 67 70 66 63 65 65 61 58 53 46 43 41 36 31 26 20 15 12 13 18 19 16 19 26 36 43 41 39 34 23 13 11 12 15 15 16 17 16 16 17 16 14 14 14 14 13 16 16 10 7 7 6 8 8 12 17 19 20 21
16 12 10 9 8 9 10 14 17 17 21 28 35 36 30 24 20 18 19 23 25 25 28 27 26 32 41 43 49 64 73 74 78 83 82 78 71 61 55 51 47 43 37 30 24 19 15 13 19 24 18 16 22 31 36 35 37 39 33 26 20 16 15 14 16 17 15 15 16 16 15 14 15 15 16 23 23 12 8 8 8 8 6 8 11 11 15 16
15 11 10 9 9 10 13 18 19 23 32 37 33 24 18 15 15 15 16 21 23 22 22 24 25 25 32 46 53 53 58 70 85 94 92 89 81 71 67 62 56 51 43 36 29 24 22 16 18 26 20 14 19 26 31 35 41 43 42 39 29 21 16 14 14 15 16 14 14 15 15 15 15 15 21 28 26 17 12 13 11 9 7 7 7 9 11 11
14 12 10 9 10 11 16 21 25 35 39 31 21 16 17 17 18 18 18 22 23 20 19 24 32 32 36 62 83 81 76 81 93 103 100 93 90 84 77 71 65 57 47 40 35 31 30 20 17 23 21 15 15 22 27 35 42 43 52 59 49 35 22 16 16 14 16 14 12 15 13 15 15 14 20 21 20 18 15 17 15 10 8 6 7 10 11 9
14 12 10 10 11 14 21 26 34 43 34 21 19 21 23 23 23 22 20 23 22 19 19 21 31 40 43 61 85 89 84 86 92 99 99 92 89 85 78 72 66 58 49 45 41 36 35 28 17 16 21 19 15 17 21 31 40 42 62 79 71 58 35 24 25 16 15 15 10 14 13 14 15 13 18 16 14 15 12 14 15 12 11 7 7 8 10 12
14 12 11 10 12 18 25 33 44 42 25 19 24 26 28 29 28 26 23 23 23 23 26 28 37 48 48 49 62 69 70 71 74 79 84 83 76 71 67 60 57 59 55 49 45 38 34 30 18 14 25 26 18 16 16 26 36 41 64 72 60 69 56 33 35 25 17 16 10 13 13 12 15 12 15 15 12 13 13 14 14 14 13 9 10 8 7 10
14 12 12 11 15 22 30 41 50 38 21 21 27 29 33 35 32 29 27 26 26 32 37 39 46 54 53 50 56 67 71 70 69 69 72 71 63 57 56 51 48 56 57 51 48 41 34 30 19 16 28 32 23 17 13 21 33 39 61 60 45 73 74 45 50 42 20 15 11 13 14 11 14 13 12 13 12 11 12 16 16 13 13 12 15 16 11 6
14 13 12 13 18 25 34 47 54 41 23 21 28 33 39 41 37 33 31 30 32 41 48 45 48 57 62 63 65 72 76 77 74 69 66 67 62 55 59 62 54 50 57 60 54 46 37 30 23 19 26 35 26 17 15 20 31 37 50 50 42 71 87 74 83 70 32 17 12 12 16 12 10 11 12 13 12 11 11 15 16 13 13 13 16 22 20 8
15 13 12 14 18 26 39 50 55 45 26 22 30 38 46 47 42 38 36 36 42 51 55 53 56 64 74 80 77 73 72 71 66 63 60 58 56 54 59 70 65 61 68 69 64 63 51 34 27 21 21 32 30 21 15 15 29 40 43 42 44 73 96 88 90 81 41 16 13 12 13 17 16 11 11 14 13 10 10 13 14 13 12 12 13 18 20 10
15 13 13 14 17 27 43 54 55 45 28 25 35 43 53 53 47 44 40 43 55 62 63 66 66 63 71 83 81 77 79 74 65 66 63 52 50 50 52 61 64 69 76 73 77 81 63 44 35 22 16 26 32 25 15 21 37 44 45 44 50 80 104 91 82 81 52 27 29 19 8 26 36 19 8 12 16 12 10 13 14 12 11 11 12 12 13 10
16 14 14 15 18 29 45 56 56 44 28 29 40 49 59 59 53 49 46 51 63 71 75 78 75 63 67 87 91 84 85 82 73 70 65 55 52 49 49 57 55 57 63 63 73 78 68 62 50 28 16 20 31 27 20 30 32 37 56 55 47 65 91 96 90 86 72 61 59 32 6 21 33 21 11 10 16 16 9 10 14 12 11 11 14 13 9 8
16 14 15 15 20 32 48 59 60 45 29 32 45 55 63 65 59 53 53 62 72 84 90 88 83 72 68 85 93 80 73 77 75 66 63 64 63 56 53 55 51 49 49 45 54 67 75 82 71 44 19 17 31 28 29 37 21 31 74 83 64 53 61 88 98 85 80 80 73 46 15 11 15 19 20 13 14 17 9 10 13 12 12 10 15 19 12 9
18 14 16 17 21 33 49 65 68 52 32 34 49 60 68 69 63 58 63 73 81 92 101 96 92 84 70 72 81 76 75 82 76 60 60 69 71 71 70 69 68 64 54 43 39 49 66 78 79 61 25 15 31 31 35 41 22 36 82 99 86 58 55 88 94 75 77 82 77 57 27 10 12 19 22 15 14 16 11 9 12 12 12 10 11 17 15 12
19 15 16 18 22 32 48 63 71 61 38 36 53 64 69 70 67 68 74 80 86 96 103 100 99 96 84 74 68 68 76 80 70 59 60 67 74 84 88 86 85 78 65 52 40 42 55 61 67 65 32 12 35 54 45 27 22 49 81 99 95 74 78 100 93 81 84 77 58 43 31 20 16 17 21 22 17 16 15 9 11 15 11 10 12 12 14 15
20 16 16 19 24 33 50 64 71 65 43 40 59 67 69 73 74 83 91 90 92 99 100 98 99 102 99 85 67 63 72 74 74 76 74 76 81 78 76 76 76 76 68 57 50 46 49 50 51 56 36 11 41 78 55 20 34 62 78 98 104 95 100 103 98 91 78 59 38 34 46 39 19 17 31 40 24 14 18 10 11 19 12 11 13 12 20 22
22 17 17 21 25 33 51 66 66 56 42 48 67 69 72 76 77 91 102 99 98 100 100 95 91 99 100 82 67 68 74 78 85 86 72 66 68 57 56 66 65 66 61 58 69 64 53 49 43 47 38 15 45 85 59 31 47 63 78 101 103 100 103 96 90 74 50 47 47 48 57 42 21 19 34 53 37 14 17 14 11 17 12 13 12 13 27 22
24 18 18 22 26 33 51 65 59 44 41 56 71 74 74 74 76 86 89 93 94 88 94 94 82 96 99 75 75 83 76 79 89 83 62 55 67 73 83 86 67 62 63 62 80 87 78 60 39 48 44 20 51 89 72 52 45 46 78 103 100 102 91 63 54 43 29 41 55 59 52 30 26 26 26 51 47 18 16 16 11 14 12 16 15 17 27 17
26 18 19 23 27 33 48 63 54 36 41 59 74 79 74 69 77 78 77 90 82 60 80 98 82 90 91 71 87 95 76 82 88 71 59 67 85 88 88 88 74 74 79 66 63 79 85 62 41 54 48 34 64 82 82 84 47 33 80 103 99 102 78 43 38 40 43 58 66 60 40 22 30 31 24 39 38 20 20 17 11 14 14 15 17 20 23 13
29 20 19 23 24 29 45 62 53 34 42 59 74 85 81 78 83 78 82 95 70 40 65 86 67 69 72 62 80 88 72 81 82 61 61 82 94 77 62 74 79 73 73 65 60 71 82 73 64 67 54 58 79 69 80 99 54 41 91 105 97 100 85 65 58 59 71 86 78 50 30 31 37 33 30 32 24 20 25 21 14 14 15 16 17 17 18 15
31 22 19 22 23 28 43 64 56 35 42 61 79 93 90 84 80 76 90 94 60 34 44 52 47 52 56 56 73 77 59 55 57 62 77 90 87 70 57 71 83 79 79 83 83 82 86 86 84 83 75 79 79 64 82 93 60 64 94 92 92 97 91 81 69 69 81 87 80 55 38 46 42 31 36 38 26 20 22 23 20 15 11 16 19 17 17 19
33 24 20 21 23 28 40 62 61 40 39 53 70 82 79 78 79 80 97 95 60 39 33 35 48 53 50 58 71 66 46 40 52 74 95 96 80 69 63 63 74 89 96 99 99 91 88 88 84 87 95 93 69 57 83 91 76 91 96 84 94 98 93 93 83 82 83 72 75 67 44 46 51 39 37 41 31 18 18 22 22 16 10 12 16 16 17 18
35 26 22 21 23 26 35 55 64 50 38 40 59 78 82 89 91 84 95 95 67 47 35 29 44 52 48 51 52 45 44 60 75 86 99 96 77 71 72 62 62 81 94 99 101 93 91 99 91 80 90 98 66 41 68 85 79 96 101 87 96 100 93 93 82 74 68 57 73 82 50 39 59 54 35 33 31 22 20 20 18 16 12 10 12 14 17 17
37 30 24 21 22 26 34 54 69 64 48 41 57 80 85 91 92 83 93 99 74 50 41 31 31 41 47 46 42 42 55 69 73 81 92 86 73 72 72 63 59 75 92 99 98 93 96 105 93 72 78 90 62 30 48 67 62 83 105 95 96 101 91 87 83 71 67 68 82 94 66 35 53 68 47 28 25 25 23 18 18 17 10 9 10 11 18 18
38 33 26 21 22 25 36 58 73 74 65 55 55 64 72 84 92 88 93 102 83 55 46 41 32 33 39 40 36 36 47 51 53 76 89 78 76 75 63 58 62 74 91 93 87 89 98 100 85 71 74 76 56 35 46 63 57 68 96 96 93 99 90 89 93 78 75 85 83 88 80 47 47 72 62 33 23 27 26 18 17 16 12 14 11 12 24 26
41 37 29 23 23 26 34 49 61 67 67 62 54 54 67 85 95 93 92 99 95 72 57 51 46 44 44 45 40 32 38 43 47 75 87 75 82 79 58 67 83 86 95 93 82 86 97 96 77 61 64 71 62 43 46 70 68 62 85 94 87 92 88 84 91 82 80 87 76 79 90 69 56 62 51 32 24 25 26 23 17 14 15 19 18 21 28 27
43 40 33 25 23 25 29 38 56 71 76 74 64 57 71 90 97 99 97 97 101 92 75 62 60 65 64 63 56 43 52 60 51 66 79 73 81 73 50 66 87 85 89 92 89 94 102 99 80 60 62 76 73 49 48 77 77 63 83 98 91 97 94 81 82 80 79 78 64 68 81 73 66 57 33 24 26 21 21 24 18 13 14 18 19 18 18 20
44 42 37 30 23 22 25 30 50 75 85 88 79 64 74 94 98 100 101 95 96 100 89 74 74 83 84 85 76 58 67 76 61 69 85 79 79 65 39 53 77 78 83 93 95 96 99 94 78 64 64 74 74 58 62 90 91 70 77 93 97 101 100 91 84 76 80 81 66 69 76 63 58 51 27 21 28 21 20 22 16 11 13 19 24 22 23 33
46 42 39 34 25 21 24 25 38 62 79 91 86 66 70 94 99 98 102 97 91 98 96 82 83 93 96 100 92 67 61 70 69 75 77 66 66 57 38 53 81 87 87 95 100 98 94 85 73 67 65 64 66 67 76 99 99 74 72 90 101 99 96 98 94 85 88 88 76 77 75 57 53 55 43 39 36 23 19 20 14 14 16 20 29 32 32 34
49 45 41 38 30 23 23 23 28 45 66 84 89 75 64 75 83 82 90 98 94 96 103 95 85 87 93 100 98 79 63 64 79 86 69 52 52 45 36 55 84 91 82 87 100 96 83 77 71 70 67 57 53 62 79 95 89 75 85 101 100 96 95 96 99 96 87 80 78 77 67 59 62 60 56 60 52 36 31 25 14 15 16 15 21 26 24 22
49 47 44 42 36 26 21 20 20 32 54 73 87 84 59 48 61 67 70 85 90 87 97 104 92 77 75 82 90 93 83 65 60 63 52 42 45 42 46 63 79 77 67 79 101 93 72 66 62 62 71 72 70 77 89 96 87 80 93 99 88 91 98 95 98 101 89 81 82 73 60 63 71 61 54 59 52 38 35 29 22 20 15 11 16 23 29 30
49 49 47 44 40 31 22 20 20 30 53 70 81 88 68 41 45 55 54 69 86 88 91 100 99 83 69 66 68 79 92 74 45 40 38 33 37 42 50 63 67 60 56 71 94 97 84 72 60 58 71 81 87 91 91 92 92 88 90 90 86 92 98 95 95 100 96 87 78 72 69 72 77 70 58 51 44 32 22 19 27 30 20 12 13 16 27 30
53 52 51 46 43 38 26 21 23 26 42 62 75 87 83 56 38 39 49 66 82 92 94 92 95 89 68 53 45 49 71 72 48 43 43 32 33 40 46 55 52 46 56 70 82 95 95 79 65 65 74 81 89 96 92 85 86 90 93 95 96 96 98 99 100 100 97 85 72 75 81 79 79 76 59 43 36 28 18 14 22 28 22 17 14 17 31 32
56 54 55 50 46 44 32 22 22 21 27 49 72 87 91 79 55 37 43 62 72 84 93 87 86 81 56 40 37 32 41 51 46 46 45 41 47 50 51 61 55 41 51 65 71 83 85 74 70 74 81 88 92 96 99 91 81 85 94 101 103 100 97 99 101 100 96 88 84 83 78 75 80 78 63 47 35 26 21 18 19 24 23 18 13 16 29 28
56 54 56 53 47 46 40 27 20 20 21 32 61 85 94 93 78 48 35 49 61 71 83 87 87 79 52 34 34 30 28 38 45 47 51 61 65 53 51 72 74 53 47 53 65 80 78 69 72 77 82 87 86 89 95 91 85 93 99 97 94 92 91 92 96 94 83 76 80 77 66 64 70 68 60 52 41 35 31 21 17 20 19 15 13 15 19 15
56 56 57 55 51 47 45 34 20 19 23 25 42 70 85 88 85 66 45 44 57 68 77 83 88 88 71 45 32 28 26 32 41 44 51 63 63 52 57 79 82 65 52 53 65 80 81 73 72 78 81 77 77 90 98 90 86 90 86 79 76 77 79 79 75 73 65 56 57 59 55 52 50 50 55 54 46 45 39 23 14 16 14 13 15 17 16 12
Wind_Speed
30 31 31 31 31 32 32 33 33 34 34 35 35 36 37 38 39 40 42 43 45 46 47 49 50 52 53 55 57 59 62 63 65 66 67 67 68 68 67 66 65 65 64 63 63 64 65 65 66 66 67 67 67 66 64 64 62 61 63 63 64 62 59 59 58 51 39 33 32 30 28 29 37 37 32 37 40 36 39 43 39 37 37 37 37 35 34 33
30 30 30 30 31 31 31 31 32 32 33 34 34 35 36 38 39 40 42 43 45 46 48 50 51 53 54 55 56 57 60 62 64 65 66 67 68 69 69 69 68 67 66 65 65 64 65 65 66 67 68 68 68 68 66 65 65 66 66 65 66 64 61 62 57 53 47 37 31 30 29 31 39 41 38 38 39 36 38 40 37 34 37 38 37 35 34 33
30 29 29 29 29 30 30 29 29 30 30 31 32 33 34 35 36 38 40 42 44 45 47 49 50 52 54 56 56 57 58 60 62 63 64 66 67 68 69 70 70 70 69 68 67 66 66 65 66 67 68 69 68 69 68 68 69 68 69 68 68 66 63 62 56 54 53 45 35 29 27 30 37 41 40 39 40 38 38 37 34 34 36 39 38 36 35 35
31 30 29 28 27 27 27 27 27 27 27 28 28 29 30 31 33 34 36 38 40 42 44 46 48 49 50 53 55 56 57 59 62 61 62 64 65 67 68 70 70 71 71 71 69 68 67 66 66 67 68 68 68 69 69 70 71 71 71 71 68 66 64 62 59 56 54 51 45 36 31 31 33 38 38 37 41 40 38 37 34 33 36 39 40 37 37 36
32 30 29 27 26 25 24 24 24 25 25 26 27 28 28 29 31 31 32 33 35 37 38 40 43 44 46 49 51 53 52 55 60 59 58 61 62 64 66 67 69 70 71 72 72 71 69 68 68 68 68 67 68 70 70 69 71 72 73 70 67 66 66 63 61 59 56 55 53 46 40 36 36 39 41 40 43 43 39 36 32 32 36 40 39 37 37 36
33 31 29 27 25 24 24 24 24 24 25 26 26 27 28 28 29 30 30 30 31 33 34 35 36 38 41 43 46 49 48 51 56 55 54 57 59 61 62 64 66 68 70 71 72 73 71 71 70 69 68 68 68 69 69 69 71 73 72 69 67 67 67 65 61 58 57 58 58 53 47 48 48 44 47 47 45 45 41 35 32 33 37 40 40 37 36 36
34 32 30 28 26 25 24 24 24 25 26 26 27 27 28 28 29 29 29 30 31 32 33 33 34 35 36 38 41 44 46 49 51 50 50 52 54 56 58 60 63 65 68 69 71 72 73 73 72 71 70 69 68 68 68 69 70 73 71 68 67 67 68 67 64 58 56 60 60 50 44 55 57 47 49 51 49 49 41 39 43 45 42 37 38 38 36 36
34 32 31 29 27 26 26 25 26 26 27 27 28 28 29 30 30 30 29 30 30 31 31 32 33 33 34 36 38 40 44 45 46 48 48 48 50 52 54 56 58 61 64 66 69 71 72 73 73 73 72 70 69 68 68 69 70 72 69 67 67 67 69 69 67 64 62 65 62 51 48 58 58 49 51 53 53 53 43 43 52 52 46 38 37 38 36 37
35 33 31 29 28 27 27 27 27 28 29 29 30 31 32 32 32 30 29 29 30 30 30 31 32 33 34 35 36 39 41 41 41 45 47 46 47 48 49 51 53 55 59 62 65 67 70 71 72 73 73 72 70 69 68 69 70 70 67 66 68 67 70 71 68 69 69 67 66 65 64 64 57 52 56 55 54 55 48 50 57 52 45 42 40 38 38 39
35 33 30 28 27 27 27 28 29 30 30 31 32 33 34 34 33 31 30 31 31 32 32 32 33 34 35 36 36 39 40 39 40 42 44 45 46 46 46 48 49 51 53 58 60 62 65 68 71 73 74 74 73 72 70 71 71 68 66 67 69 69 70 71 69 70 71 69 71 72 68 63 59 57 59 56 54 57 54 56 61 55 46 45 44 41 40 40
34 32 30 28 27 27 28 28 29 30 31 32 33 33 33 33 32 32 33 33 34 35 35 36 36 37 37 37 37 38 38 39 40 40 41 43 45 45 44 44 46 48 49 53 56 59 61 64 68 71 73 74 76 75 73 73 72 69 69 70 70 69 68 71 72 71 70 70 73 70 65 63 62 61 59 55 57 60 57 60 65 56 48 48 46 45 44 42
35 32 29 27 26 27 27 28 30 31 32 33 33 32 31 31 31 33 34 36 37 38 38 39 39 39 40 39 38 39 37 38 39 39 41 42 43 45 44 43 43 45 47 49 52 55 57 60 64 66 69 72 73 72 73 74 72 69 71 71 69 67 66 71 73 70 68 69 71 68 66 64 60 59 56 56 61 60 58 64 66 55 49 50 48 48 47 45
35 32 29 27 26 27 27 29 30 31 32 32 32 31 30 31 32 34 36 38 40 41 41 42 42 42 41 39 39 40 39 38 38 37 38 40 42 43 44 44 43 43 45 46 49 52 54 56 60 62 65 70 70 71 74 75 73 71 71 71 70 68 67 69 72 70 66 68 69 66 67 62 53 53 54 58 61 60 62 66 64 55 49 51 51 50 49 48
36 32 29 27 26 27 28 29 30 31 32 31 30 30 30 32 34 36 38 40 42 43 44 44 44 44 43 40 40 43 42 40 40 38 38 39 40 41 42 43 43 43 44 45 48 49 51 54 57 59 61 65 68 70 74 74 74 74 72 72 72 70 68 69 71 69 64 66 66 65 67 59 49 50 53 58 59 59 63 63 60 55 51 53 52 50 51 50
36 33 29 27 26 27 28 29 30 31 30 29 29 29 31 33 35 37 39 41 43 45 47 47 47 46 45 43 42 44 45 44 43 42 42 42 42 43 42 41 41 43 44 45 47 47 49 51 54 56 57 61 65 67 71 73 74 75 74 75 74 71 68 68 71 68 63 63 63 64 65 57 51 51 52 56 58 59 61 59 56 55 53 54 53 51 52 52
36 33 29 27 26 27 28 29 30 29 29 28 28 31 33 35 37 39 41 43 44 46 48 49 48 48 47 45 43 44 46 46 45 45 44 44 44 45 43 42 43 42 43 44 47 48 48 49 52 54 55 58 61 62 67 70 71 73 74 75 74 71 69 68 70 69 65 62 62 64 61 55 53 52 52 55 56 58 58 54 53 55 55 52 52 53 53 53
37 33 29 27 26 27 29 30 29 28 28 28 30 33 35 37 38 40 42 43 44 46 48 49 49 48 48 47 46 46 47 46 45 45 45 45 44 45 44 44 45 44 42 43 46 48 48 49 51 53 54 57 59 60 64 68 68 71 72 72 72 71 69 67 68 70 68 63 62 63 58 56 53 50 53 53 55 59 56 51 50 54 55 52 52 54 53 53
36 33 29 27 27 28 29 29 28 28 28 29 31 35 37 38 39 41 42 42 44 46 47 48 48 47 49 50 48 47 48 47 45 44 45 45 44 45 45 45 45 44 43 42 44 47 49 49 50 52 54 56 57 59 64 68 68 69 70 70 71 71 70 68 65 67 70 64 61 63 59 56 51 50 52 50 56 61 54 49 49 51 52 50 52 53 53 53
36 32 29 27 28 29 30 29 28 28 29 31 33 36 37 37 38 40 40 40 41 42 44 45 44 43 46 49 47 48 49 46 44 44 44 44 44 44 44 45 45 44 44 43 43 45 48 50 51 53 55 56 58 60 63 64 63 65 66 66 68 68 69 69 65 64 70 67 61 62 61 55 51 49 47 46 57 62 54 49 46 48 50 48 52 53 52 53
36 31 28 28 28 30 30 28 27 28 30 32 33 32 33 35 36 38 38 36 36 38 40 44 43 40 41 44 45 46 46 43 41 42 43 43 43 43 43 43 44 44 44 43 42 44 47 51 52 54 54 54 55 57 59 59 58 60 60 61 65 67 66 68 66 63 68 70 63 60 61 57 52 48 45 49 56 57 51 44 42 46 48 47 50 51 50 51
35 30 28 28 29 30 30 28 27 29 31 30 28 29 31 34 36 38 37 34 34 37 39 43 43 39 36 37 38 37 36 36 36 37 39 40 40 41 42 42 43 44 42 41 42 45 49 52 53 53 51 50 52 54 55 56 57 57 53 51 56 61 64 65 65 63 65 71 64 58 60 58 53 49 48 55 56 51 47 40 38 45 48 46 47 47 46 46
34 30 27 27 29 30 29 28 28 30 29 26 26 29 32 34 36 37 35 31 33 38 39 40 40 37 33 31 31 31 29 29 31 33 34 35 36 38 40 41 41 42 41 41 44 47 49 52 52 50 48 48 51 52 55 55 55 57 53 47 47 51 59 61 59 61 65 71 67 60 59 56 54 52 50 57 57 49 47 42 41 46 47 45 45 44 43 43
34 29 27 27 29 30 29 28 29 29 26 24 28 32 33 34 36 36 33 29 31 36 36 36 36 33 31 29 29 28 27 27 28 30 31 31 34 36 38 39 39 40 42 43 46 48 51 52 48 46 47 50 52 53 54 55 55 58 54 52 51 44 49 58 56 58 64 70 68 62 59 54 53 54 52 55 55 48 45 42 43 47 46 45 44 43 43 42
34 30 27 27 29 30 28 28 30 29 25 26 31 34 35 36 35 35 32 29 31 33 32 33 32 29 28 27 25 24 23 22 23 25 25 26 30 33 35 36 38 40 42 44 47 49 51 51 44 44 49 51 53 54 55 55 55 58 55 55 56 41 38 50 50 54 64 69 68 61 57 55 53 54 53 54 54 50 45 42 44 48 47 46 45 43 43 44
35 30 28 28 29 29 28 28 31 29 25 28 33 35 36 36 36 35 32 31 31 30 30 31 30 27 26 24 23 21 20 20 20 20 20 22 25 28 30 34 37 39 40 42 46 49 51 50 45 46 50 52 54 54 55 56 54 59 59 57 58 43 32 37 35 42 60 68 67 60 55 56 55 54 53 53 54 50 45 43 46 49 49 49 47 44 44 43
35 31 28 28 29 30 29 29 32 30 27 29 33 36 37 37 37 34 32 32 30 29 30 29 28 26 24 23 22 21 20 20 20 19 19 21 23 25 27 31 33 35 37 39 42 45 48 48 46 49 51 53 55 55 56 57 54 57 61 59 57 42 29 34 33 35 57 67 64 60 56 52 51 54 54 52 52 51 46 45 47 49 51 51 49 46 45 42
36 31 28 29 30 30 29 31 33 30 27 29 33 37 37 37 37 34 33 32 28 29 31 28 27 26 25 23 21 20 20 20 19 19 20 21 23 25 27 28 29 31 33 37 39 43 46 46 47 52 52 52 55 56 56 55 53 55 57 58 57 41 26 33 38 36 51 58 54 56 55 45 43 51 55 52 50 51 49 45 47 49 52 52 50 48 46 42
37 32 29 29 30 30 29 31 34 30 27 29 34 37 37 37 36 34 34 32 28 30 30 27 27 27 25 22 20 20 20 20 19 21 21 21 23 25 26 27 28 29 32 37 38 39 43 43 45 51 52 52 55 56 54 53 54 54 51 52 58 51 34 29 34 35 38 39 39 51 56 49 47 50 51 51 49 51 50 46 47 49 51 53 51 49 47 42
38 33 29 29 31 30 30 33 34 31 27 30 34 36 37 36 35 34 33 31 30 31 29 29 28 25 23 20 18 18 18 18 20 22 22 22 24 25 27 29 30 32 34 37 37 38 43 42 42 47 51 53 55 56 53 51 56 55 44 42 51 58 48 30 27 31 28 27 32 45 56 55 52 50 48 51 51 50 49 46 47 48 50 53 50 47 45 41
39 34 30 30 31 31 31 33 35 32 28 30 35 36 36 35 34 34 32 30 32 32 30 30 27 24 22 20 16 16 17 17 19 22 22 24 26 27 31 32 34 36 37 38 39 42 46 44 41 45 51 53 53 54 53 52 56 53 42 34 40 55 52 30 23 30 29 28 32 40 52 54 52 49 49 51 50 49 49 47 47 48 50 52 50 46 44 41
40 35 31 30 31 31 31 33 36 33 28 30 36 36 35 35 33 31 30 31 33 33 30 29 26 23 21 19 16 16 18 18 19 20 21 23 25 26 29 32 33 35 36 39 41 44 46 47 45 45 50 54 52 50 54 56 54 50 41 32 33 46 47 30 23 28 28 33 42 45 47 50 51 50 49 50 50 48 49 48 46 48 50 50 49 47 44 41
41 36 32 30 31 32 32 34 37 33 28 31 36 36 35 35 31 29 29 33 35 34 31 27 25 23 20 18 17 17 16 16 18 19 18 19 21 24 26 27 30 32 32 33 38 43 47 49 48 46 49 56 54 48 52 56 52 47 42 33 31 37 40 34 28 28 32 41 49 47 43 46 51 50 44 44 51 50 48 48 46 46 48 48 48 47 44 41
42 37 33 31 31 32 32 35 37 32 28 31 35 35 35 33 30 28 29 33 35 34 32 27 24 23 21 19 18 15 13 14 15 14 13 12 14 17 18 20 25 28 27 29 34 40 44 48 51 48 49 57 56 48 49 54 51 49 44 35 35 35 37 41 38 39 48 48 43 43 45 48 51 51 43 37 46 50 46 47 46 44 45 46 47 46 42 39
43 38 33 31 31 32 32 35 36 31 27 32 35 34 33 32 29 29 30 33 35 34 32 28 24 22 22 21 16 11 10 13 12 9 9 10 11 13 13 16 20 19 21 28 34 37 39 46 51 47 48 57 56 49 47 49 52 52 44 35 36 34 38 51 51 53 58 50 41 42 48 52 48 49 47 38 41 47 45 46 46 43 43 44 44 44 42 39
43 39 34 31 31 31 32 34 35 29 28 33 35 33 33 32 30 32 33 34 36 36 31 27 26 23 20 19 14 7 9 12 7 6 8 10 11 12 10 13 16 17 21 27 33 35 35 40 44 43 47 55 54 48 45 42 50 54 42 34 37 32 37 52 54 50 49 41 38 42 48 51 47 46 46 45 47 45 41 45 47 42 42 44 44 44 43 40
44 39 34 31 31 31 31 34 34 29 28 33 34 32 32 31 31 33 35 35 37 38 31 27 27 22 16 13 8 5 9 10 5 3 7 9 10 7 7 8 11 17 20 23 26 29 30 33 37 42 49 53 51 49 45 40 48 51 39 34 36 28 28 39 43 41 35 29 32 44 49 46 46 47 45 47 52 48 41 43 45 42 40 43 46 46 44 41
44 40 35 32 32 31 31 33 33 29 28 32 34 31 30 30 30 32 34 34 37 41 37 29 24 19 13 7 4 5 7 5 3 3 6 9 7 5 7 6 9 14 18 22 24 25 24 26 35 44 49 50 50 51 45 40 44 45 39 38 35 27 25 29 34 35 30 26 29 39 46 43 45 50 45 45 52 51 45 42 41 42 41 43 46 46 43 41
44 40 36 33 31 31 31 32 33 31 28 31 33 32 30 30 31 32 33 33 35 40 40 30 20 16 14 9 7 7 2 3 1 5 9 10 5 5 5 5 9 13 16 20 22 25 25 23 31 43 46 45 50 54 45 39 40 36 37 40 34 29 28 25 29 31 30 32 30 33 44 45 42 46 46 47 52 51 46 43 40 40 42 45 47 45 41 41
44 41 37 33 30 31 31 31 33 32 29 30 33 32 30 29 29 30 31 32 33 37 38 31 21 16 14 12 10 6 4 3 4 8 12 9 2 5 4 7 10 12 16 19 21 26 26 21 26 41 46 42 49 56 47 40 42 35 32 35 31 28 29 26 29 33 35 38 32 27 41 48 39 38 45 48 48 47 43 41 40 40 43 46 46 43 41 42
45 41 37 34 31 30 31 31 32 33 30 30 31 31 29 28 28 29 30 31 31 32 34 31 24 19 17 15 13 9 7 8 9 11 13 6 3 4 4 9 12 12 15 19 21 24 24 20 25 40 45 43 49 56 48 42 44 38 31 31 30 29 29 28 27 31 33 34 28 21 32 47 42 31 35 44 47 44 40 38 40 42 43 44 43 42 42 42
46 43 38 35 32 29 29 29 30 32 31 30 30 30 29 28 27 27 28 29 27 27 29 28 25 22 20 17 13 8 8 9 9 12 13 6 2 4 6 11 15 15 17 20 21 22 23 21 26 39 46 45 47 50 46 40 42 42 34 29 30 30 30 29 26 28 28 24 24 21 23 38 41 28 26 36 44 44 39 38 41 43 42 43 44 44 42 41
45 43 40 37 32 28 27 28 28 31 31 30 30 31 30 28 27 26 26 27 25 24 25 23 22 20 17 14 9 5 5 7 8 10 11 6 1 6 9 13 17 18 17 19 21 21 20 22 29 40 43 41 42 46 44 37 38 41 34 28 29 30 31 30 25 25 25 20 22 22 16 22 30 32 34 37 39 42 40 38 41 43 43 43 44 42 40 40
44 43 41 37 33 28 27 27 28 30 32 32 31 30 29 28 27 25 25 25 23 23 24 21 19 18 16 13 8 5 4 5 6 7 7 5 4 7 10 14 17 19 22 24 24 20 18 22 31 39 39 36 38 42 42 35 35 39 36 30 29 28 27 26 23 23 23 21 24 23 18 20 23 31 43 44 38 38 38 38 40 43 44 43 42 41 41 42
44 42 40 37 34 30 28 27 27 28 30 31 29 28 27 27 27 25 24 23 22 22 22 20 19 19 18 15 12 9 6 5 5 5 4 5 7 9 13 17 18 22 27 26 22 18 17 23 33 38 38 38 39 42 44 38 34 40 41 34 28 27 25 23 23 26 22 21 25 23 20 27 29 30 39 42 36 31 33 36 38 40 42 42 41 43 44 44
43 41 39 37 34 31 28 26 26 26 28 29 28 27 26 24 25 25 24 24 23 22 20 19 19 19 19 19 17 14 10 7 8 7 6 9 11 13 18 22 20 20 23 22 19 17 19 27 35 36 37 40 42 43 43 37 33 42 44 32 26 29 28 22 19 22 21 19 21 18 16 27 33 29 30 32 32 32 33 36 39 40 43 42 41 42 42 41
43 42 41 38 35 33 29 25 24 24 25 27 27 26 24 23 23 25 25 25 26 24 21 20 20 19 20 20 19 17 15 13 11 9 9 12 17 19 21 21 16 15 20 21 17 17 22 30 35 35 34 35 37 37 35 30 32 43 42 29 28 33 31 24 18 16 22 22 18 17 18 24 27 28 28 26 27 32 34 37 40 43 43 42 41 41 41 40
42 42 41 39 37 35 32 27 25 24 24 25 26 24 23 22 23 24 24 24 25 25 23 21 20 20 20 21 19 17 16 16 14 13 14 17 22 21 17 15 12 15 23 22 17 19 26 29 30 33 32 29 30 33 33 30 31 41 42 35 34 33 28 28 22 15 21 24 18 18 22 23 23 26 28 25 25 31 35 37 40 42 42 42 42 41 41 40
42 41 41 39 36 35 33 29 26 24 24 24 25 24 23 22 22 22 23 22 22 24 25 24 22 20 20 21 20 16 13 13 14 18 21 22 24 21 16 15 16 19 24 23 18 19 23 25 27 30 30 25 25 27 29 29 30 38 40 35 32 29 26 29 26 18 19 22 20 20 21 22 23 23 24 24 24 30 35 38 40 40 41 42 41 41 41 40
41 41 40 39 36 34 33 29 24 22 22 22 24 25 24 21 20 20 20 20 20 22 24 25 24 22 19 19 20 17 12 9 10 17 21 22 22 21 18 18 20 22 22 20 18 15 16 24 28 29 27 23 22 23 25 28 32 36 37 33 30 31 31 30 26 21 21 24 24 21 19 21 23 22 23 23 24 29 35 38 39 39 40 41 41 40 40 38
40 40 40 39 37 34 33 31 26 22 21 21 23 25 25 22 19 18 18 18 19 20 20 22 22 20 18 17 19 17 11 10 12 16 19 21 20 20 19 19 21 23 21 19 17 13 14 24 27 25 25 22 22 23 24 28 33 37 38 34 32 33 34 30 27 27 29 30 28 26 24 23 22 21 23 24 25 29 34 36 38 38 39 39 39 39 37 35
38 38 38 38 37 35 33 32 29 25 22 21 21 22 24 23 19 16 17 17 18 19 18 18 18 16 15 15 18 16 11 10 13 14 16 19 19 19 20 19 20 22 21 19 17 14 17 25 25 22 22 22 23 23 22 27 32 34 36 37 36 36 36 35 34 36 37 36 34 34 33 29 24 21 23 24 25 27 31 36 38 37 37 37 38 37 35 34
37 37 37 37 37 36 33 31 29 27 23 21 20 20 22 23 19 15 16 16 17 18 18 17 17 14 12 13 16 14 9 9 12 13 14 17 18 20 20 17 17 18 19 19 17 16 20 26 24 19 19 22 24 21 20 26 31 32 36 41 42 41 39 39 39 40 40 37 33 33 34 32 29 25 24 25 25 26 29 35 37 36 36 37 36 36 34 34
Wind_Direction
295 292 288 285 282 279 276 274 273 271 270 269 267 266 265 264 262 261 260 259 258 257 257 255 254 253 252 251 250 249 248 247 246 245 245 244 243 242 241 240 239 239 238 237 236 235 234 234 234 234 234 234 234 234 235 236 236 236 235 236 237 237 237 236 237 234 233 236 232 230 227 235 238 231 231 238 244 241 240 248 245 243 245 246 248 250 252 255
299 295 290 287 284 281 278 275 273 271 270 269 268 267 266 265 264 263 262 261 259 258 257 256 255 254 253 252 251 249 248 247 247 246 245 244 244 243 242 241 240 239 238 237 236 236 235 234 234 234 234 234 233 233 233 235 236 236 236 237 237 236 237 237 238 237 233 232 235 232 228 241 243 240 245 242 244 246 242 248 250 245 244 247 248 250 253 254
306 301 295 291 287 284 281 278 276 274 272 271 270 269 268 267 266 265 264 262 261 260 259 258 257 256 255 254 252 251 249 248 247 246 245 245 244 243 242 242 240 240 238 237 236 235 235 235 234 234 234 234 234 234 233 234 235 235 237 236 236 236 238 240 239 239 237 231 231 232 223 241 246 237 243 248 244 243 243 246 248 247 244 245 247 248 251 253
313 309 304 298 293 289 286 284 281 280 278 276 275 274 272 271 270 268 266 265 263 262 261 261 260 259 258 256 255 253 252 251 248 246 246 245 244 243 243 242 241 240 239 238 237 236 235 235 235 234 234 234 234 235 233 234 235 235 236 235 234 236 239 239 240 239 239 235 232 232 228 233 240 236 237 245 247 241 241 245 246 248 247 246 245 244 248 250
320 316 312 306 302 297 293 291 288 286 285 283 282 281 279 278 276 274 272 270 268 266 264 262 261 261 261 261 259 257 255 254 251 248 248 246 245 244 243 242 241 240 239 239 238 237 236 235 235 234 234 234 234 235 234 234 235 236 236 235 233 236 238 238 240 240 239 239 235 233 234 231 232 241 240 237 244 245 239 242 248 249 247 245 243 242 245 247
325 321 318 313 309 305 301 299 297 296 294 292 290 288 285 283 281 280 278 276 274 272 269 267 264 263 262 262 262 261 260 258 254 251 251 249 247 245 243 242 242 240 239 238 238 237 236 235 235 234 234 234 234 234 234 234 235 237 235 235 234 234 237 238 239 241 240 241 240 237 238 238 236 239 242 238 239 244 241 237 238 239 240 242 242 241 244 246
328 325 321 318 314 311 309 307 305 303 300 298 295 292 290 287 285 283 281 279 277 275 274 272 270 268 265 263 263 262 261 261 258 255 254 250 249 248 246 244 242 241 239 238 237 237 236 235 235 235 234 233 233 233 234 234 234 236 236 234 234 234 236 238 238 239 239 240 239 238 237 239 238 235 240 241 238 240 241 239 236 236 241 244 243 241 242 245
331 328 324 321 318 316 314 312 310 307 304 301 298 296 293 290 288 285 282 279 276 274 274 274 273 271 269 267 266 264 262 262 260 259 258 254 251 249 248 246 243 242 240 238 237 236 236 235 235 234 234 233 233 233 233 234 234 235 235 234 235 235 236 237 237 237 238 239 237 235 236 238 237 235 238 240 240 239 236 241 241 240 245 247 244 244 243 244
333 330 326 322 319 318 316 315 313 310 307 305 302 300 297 294 291 288 285 281 278 276 275 274 273 272 271 270 269 267 266 266 263 260 260 259 255 252 250 248 245 243 241 239 237 236 235 234 234 233 234 233 233 232 232 234 234 234 234 234 235 235 237 236 236 237 237 239 239 236 238 240 237 236 238 236 240 241 235 240 244 241 243 245 245 245 244 245
334 331 327 323 320 318 317 316 314 312 309 306 304 301 298 296 294 291 288 285 283 282 281 279 277 275 273 271 269 268 269 269 265 262 260 259 258 255 252 249 247 245 242 241 238 236 235 234 233 232 232 232 231 231 231 232 233 233 233 233 234 233 236 237 235 236 237 237 239 239 238 238 238 237 237 235 239 242 238 240 243 241 241 242 243 244 243 245
336 332 328 323 320 318 317 316 314 311 308 305 302 299 297 295 293 291 290 288 287 286 285 282 280 278 275 273 270 267 268 269 266 264 261 258 257 256 254 251 248 246 244 242 240 237 235 233 232 232 232 231 231 231 230 231 231 231 231 231 232 232 233 237 236 234 236 237 239 240 239 237 237 236 234 235 238 240 240 242 242 239 241 243 243 244 244 246
338 334 329 324 320 318 317 315 313 310 307 303 300 297 296 293 291 290 290 290 290 288 286 284 281 279 276 274 271 267 267 268 267 263 260 257 255 254 254 252 249 246 244 242 240 238 236 234 232 231 231 231 231 231 231 232 231 231 232 231 231 232 232 236 237 235 235 237 239 239 241 238 234 233 232 234 238 238 238 241 240 236 240 245 244 245 246 247
339 335 331 325 321 318 316 315 313 309 305 302 298 296 295 294 292 291 291 291 290 288 286 284 282 278 276 273 270 267 266 266 265 262 259 257 255 254 253 252 249 246 243 242 240 238 236 235 232 230 230 229 228 229 229 230 231 230 231 232 232 231 231 234 237 236 234 237 239 239 240 237 231 230 233 235 237 237 238 239 239 236 238 244 245 244 246 247
340 337 332 326 322 319 317 315 312 308 304 300 297 295 295 294 294 293 292 291 290 289 287 284 282 278 275 272 269 267 266 263 263 261 258 257 257 256 254 252 251 247 243 241 240 238 236 235 233 230 229 228 227 228 228 228 229 229 230 231 231 230 230 233 237 237 235 237 239 240 240 236 230 230 233 236 237 236 238 239 240 239 238 243 246 244 246 247
341 337 333 327 323 319 317 315 311 307 303 299 296 295 296 296 296 295 294 292 291 289 287 285 282 280 276 271 268 267 265 262 261 260 258 257 256 256 255 254 252 249 244 241 239 237 236 235 232 231 229 228 227 226 228 228 228 228 228 229 230 229 229 233 236 236 235 237 238 240 239 234 231 232 233 236 237 237 238 238 240 242 239 240 245 246 245 247
341 338 334 328 323 320 317 314 311 307 302 299 297 298 298 299 299 298 296 294 292 290 288 286 283 281 278 273 268 265 264 261 259 259 258 256 255 255 254 253 251 250 247 243 240 237 236 234 232 230 228 227 226 224 226 227 227 228 228 229 230 229 229 232 236 236 234 236 237 238 238 235 232 233 236 237 237 237 237 236 238 241 240 238 242 245 245 246
342 338 334 329 324 320 317 315 312 308 304 301 301 302 303 303 302 300 297 296 293 290 287 285 283 281 279 274 269 266 263 261 259 259 258 256 254 253 252 251 250 249 249 246 241 237 235 234 232 230 227 227 225 223 223 223 224 226 227 229 230 230 230 231 235 237 234 233 237 238 236 236 234 231 235 238 239 237 235 234 235 238 240 239 241 243 244 245
342 338 334 329 325 321 318 317 314 310 308 306 308 308 308 307 305 303 301 299 295 291 288 285 284 283 281 276 272 268 264 261 259 258 257 255 252 250 249 248 248 247 247 247 244 238 234 233 231 230 227 225 224 222 222 222 223 226 227 227 229 230 230 230 232 238 238 232 234 238 236 234 233 231 232 235 240 238 233 231 234 237 239 239 241 242 243 244
343 339 334 329 325 321 320 319 315 313 312 312 313 312 312 312 310 307 305 304 299 295 292 289 287 286 283 279 274 269 265 262 260 257 255 253 250 247 247 246 245 245 244 245 246 241 235 232 229 228 226 223 223 223 222 223 224 225 226 226 227 228 230 230 229 234 239 235 230 235 237 233 231 231 230 233 238 238 233 229 229 236 237 237 240 240 241 243
344 339 334 329 325 322 321 321 318 317 316 316 317 318 319 319 317 313 311 309 304 300 299 297 293 288 285 282 277 271 267 263 260 256 252 250 249 246 244 244 243 242 241 242 245 243 237 233 229 226 226 224 223 224 222 221 221 222 223 224 226 226 228 230 229 230 238 238 230 231 236 235 231 230 229 231 234 234 233 228 224 233 236 235 239 240 241 243
344 340 334 329 325 323 323 322 321 320 319 320 323 325 327 327 324 320 317 315 310 307 307 302 298 293 286 282 280 275 269 263 257 253 250 247 246 245 243 242 242 241 240 239 240 241 237 233 229 224 223 223 222 222 221 219 218 217 218 222 224 225 225 229 231 228 234 239 233 229 232 235 232 228 228 232 233 232 230 227 224 231 235 235 237 239 240 242
345 340 334 329 326 324 324 324 323 323 322 323 326 328 329 329 328 322 318 317 313 313 313 307 301 297 289 283 281 280 274 265 258 253 251 247 244 244 242 240 240 240 238 235 234 237 238 235 229 223 220 220 219 219 219 217 217 215 215 216 216 221 222 223 229 229 231 237 235 231 231 232 234 229 229 234 235 232 230 228 228 233 234 235 237 239 240 241
345 340 334 330 328 326 326 326 326 325 322 323 326 327 328 327 327 324 317 315 314 315 316 310 303 299 295 289 284 282 276 269 262 257 254 249 245 244 243 241 239 238 236 234 233 233 237 237 230 221 219 218 217 216 216 215 214 213 215 215 212 216 218 217 224 227 229 234 234 234 233 230 234 232 229 234 235 232 229 228 229 231 233 235 236 237 239 240
346 340 335 332 330 327 327 327 328 326 321 322 327 328 328 327 327 325 319 315 315 315 315 313 307 300 296 294 289 284 278 270 263 258 253 249 246 243 244 243 239 237 235 235 235 233 235 238 230 222 220 218 216 215 213 212 211 212 214 215 211 212 216 214 220 226 227 232 231 231 234 230 231 233 231 233 235 232 227 225 227 228 229 231 232 233 235 236
346 341 336 334 332 329 328 329 330 327 320 323 328 329 329 328 328 327 322 320 318 316 317 316 312 301 295 294 289 282 279 272 263 258 252 248 247 243 242 241 238 237 235 234 236 235 235 235 229 224 221 217 214 213 213 211 209 211 213 212 208 208 213 207 210 222 226 232 231 227 230 231 229 231 231 231 233 232 227 224 225 226 227 228 229 229 231 233
347 342 337 335 333 331 330 331 332 328 321 324 329 330 330 329 329 328 326 325 320 317 320 319 315 307 298 293 287 282 278 272 266 262 256 251 250 246 242 241 238 237 234 232 233 234 233 229 226 226 223 217 213 212 212 210 207 209 212 210 205 204 213 207 201 217 227 231 232 227 226 230 231 230 230 230 231 231 227 224 225 225 226 228 229 229 231 233
349 343 339 336 335 334 332 333 334 331 326 328 331 332 332 331 331 330 329 329 322 319 321 320 317 313 304 294 286 282 276 270 266 260 255 252 251 249 244 242 239 235 232 230 229 229 229 225 222 224 224 217 213 211 211 210 207 208 211 209 203 199 208 212 205 215 228 230 232 230 224 224 230 231 230 229 230 231 227 223 225 225 226 228 229 230 231 232
350 345 340 338 338 337 335 335 336 333 330 332 334 334 334 332 333 333 331 330 326 323 321 320 318 314 309 300 286 282 279 274 267 258 256 254 250 247 241 239 236 232 230 230 228 227 226 225 222 223 224 218 212 210 210 210 206 204 208 210 206 203 202 206 207 210 223 225 226 230 224 218 225 229 230 230 229 231 227 223 225 226 226 228 228 229 231 230
352 347 342 340 341 339 338 339 339 335 332 336 338 337 336 335 335 336 334 331 330 327 322 321 319 315 315 309 292 288 285 278 271 264 261 256 250 246 241 239 237 234 233 233 230 226 224 223 221 221 221 217 211 208 209 210 206 201 204 209 208 208 206 206 206 204 213 216 216 226 225 220 223 226 229 229 227 228 227 223 225 226 226 228 228 228 230 229
353 349 344 343 343 341 340 342 341 337 334 338 340 340 340 338 338 339 337 333 332 329 324 323 321 315 316 314 302 293 287 282 280 272 267 262 257 250 245 243 242 241 240 237 231 227 225 222 219 218 217 214 209 208 210 209 205 200 200 204 206 207 207 206 202 201 210 214 210 219 223 221 221 223 227 230 227 227 227 224 224 226 226 228 228 228 229 228
353 350 347 345 345 343 343 344 342 338 335 339 342 344 344 342 341 341 339 336 333 331 328 326 321 315 315 317 311 296 287 284 283 277 272 269 262 255 251 246 244 243 241 240 232 225 224 222 220 217 213 208 203 207 212 208 203 201 196 197 203 203 204 204 199 199 208 216 215 216 221 222 221 220 224 230 229 226 227 226 224 225 226 226 226 226 227 226
354 352 349 347 347 346 345 345 344 341 339 342 344 347 347 345 344 344 341 337 335 333 332 328 320 315 315 319 313 298 287 282 283 284 281 275 266 262 257 247 244 242 236 235 229 219 218 219 219 217 211 203 197 201 209 207 204 199 190 190 198 199 200 201 198 200 206 214 217 215 216 221 221 218 218 229 232 225 223 227 225 225 226 225 225 225 225 223
354 353 350 349 349 348 347 347 345 344 344 345 347 350 350 348 347 348 342 337 338 337 332 328 323 318 318 320 311 294 287 288 290 292 289 278 266 264 259 246 247 244 229 225 222 212 210 212 214 214 208 199 194 197 202 204 203 194 185 189 193 190 195 196 196 205 209 211 212 210 212 217 220 217 211 220 234 228 222 225 226 226 225 224 226 226 224 222
354 353 352 351 349 349 349 349 347 346 347 349 351 351 352 352 351 350 346 343 346 343 333 329 327 320 317 318 307 283 289 301 291 282 277 264 259 271 270 256 250 239 221 215 211 206 206 207 206 205 202 195 192 193 195 202 205 193 183 190 191 189 198 200 201 208 210 209 207 208 213 215 218 220 212 211 227 228 221 222 225 225 223 221 223 225 224 220
354 354 354 352 350 351 350 351 350 347 348 351 353 352 353 357 355 352 352 351 353 352 339 328 326 321 314 315 305 278 300 308 282 267 282 279 287 293 278 253 235 218 215 213 205 201 202 201 197 196 195 189 188 191 189 198 204 192 184 191 190 191 203 204 205 208 208 207 206 208 215 216 217 221 216 213 222 225 220 220 223 223 220 218 218 220 221 219
355 355 356 353 352 352 352 353 352 348 349 352 354 354 355 359 358 356 356 356 359 1 350 333 331 331 327 322 310 290 310 309 278 279 307 314 314 281 233 225 211 199 199 197 191 191 193 190 188 190 189 184 186 191 189 195 197 188 186 192 185 183 199 203 204 204 202 202 205 211 216 216 217 220 217 216 223 225 219 220 223 221 218 217 216 217 218 215
355 355 356 355 354 353 353 354 353 351 350 351 354 356 356 359 0 360 359 359 5 8 2 352 347 352 359 357 329 320 321 299 268 293 311 324 320 232 203 197 187 177 173 175 176 178 182 186 187 186 184 181 184 190 193 196 191 187 191 187 175 179 195 199 200 200 199 198 203 211 212 211 216 218 215 215 222 223 219 219 222 220 216 215 215 216 216 213
355 355 356 356 354 354 354 354 355 354 351 349 352 356 357 359 2 2 1 2 8 12 12 10 9 16 25 22 358 353 9 168 233 317 325 330 313 196 181 171 175 170 166 171 174 172 172 181 190 186 180 179 185 189 192 192 185 187 195 184 172 182 194 194 195 197 199 197 199 211 212 210 215 218 215 215 220 222 218 217 220 219 215 214 215 215 214 212
356 356 357 356 354 355 354 354 357 358 353 349 352 356 358 1 2 2 1 3 9 15 19 25 28 32 37 28 23 45 97 94 10 344 343 337 253 177 163 164 168 169 166 165 168 169 166 171 188 186 178 177 185 189 191 191 186 184 187 183 177 182 191 193 195 198 201 199 197 207 213 211 212 219 220 218 220 223 220 217 219 219 215 215 216 214 212 211
356 356 357 357 356 356 355 354 358 359 355 353 354 357 1 1 1 3 2 2 9 16 23 34 41 45 52 54 61 72 54 26 12 2 4 9 162 151 147 165 167 167 164 161 163 168 169 171 180 182 179 178 184 189 190 192 189 181 177 186 187 182 187 192 195 199 200 199 197 202 212 211 208 214 222 221 220 222 221 217 217 218 216 216 216 214 212 211
356 357 358 359 358 357 357 356 357 358 357 356 356 358 3 4 2 4 2 1 8 17 22 35 50 57 64 71 79 71 30 15 8 5 8 10 137 126 130 152 155 153 154 156 162 169 169 165 172 179 180 179 182 187 188 187 189 185 178 182 183 178 184 187 189 195 195 197 201 201 210 214 210 210 219 220 217 217 217 215 216 217 215 215 216 214 210 208
356 357 358 360 358 356 357 356 354 356 359 358 357 360 4 6 3 4 4 1 5 13 16 28 47 57 61 64 64 52 20 9 3 359 355 350 135 135 131 145 151 150 151 155 161 171 171 163 171 179 179 177 179 187 190 186 187 186 179 176 179 180 183 184 182 189 193 198 202 200 205 211 212 215 219 221 218 213 213 214 213 215 214 213 214 213 210 208
356 357 358 359 359 356 355 357 356 357 359 359 359 1 4 6 3 2 5 1 359 5 10 17 29 35 37 36 31 28 13 351 342 340 352 26 117 133 132 153 162 156 157 160 160 169 174 165 168 173 174 175 177 185 191 186 185 190 185 179 185 186 183 181 184 189 190 193 199 204 211 205 206 217 219 222 220 210 210 214 212 212 214 213 213 213 211 210
356 358 358 359 359 357 356 358 359 357 358 359 359 0 5 8 3 358 2 3 359 360 6 12 17 18 22 26 31 32 15 1 2 352 12 82 112 121 132 152 160 153 155 158 155 160 166 161 165 170 172 176 177 184 189 183 184 192 183 173 184 189 179 175 188 192 183 181 189 195 209 211 212 221 221 223 225 215 211 213 211 212 215 213 212 212 210 208
355 357 358 358 359 359 357 357 357 357 358 359 359 360 3 9 7 1 3 7 6 2 7 18 21 18 20 28 37 37 32 56 69 57 69 99 112 126 142 152 151 149 155 154 147 153 160 159 164 170 175 178 179 184 187 182 185 188 179 174 187 186 175 170 183 193 185 177 177 175 197 212 212 217 219 220 224 219 213 211 209 210 213 212 211 212 212 209
353 355 358 358 359 0 360 357 356 356 357 359 0 359 358 3 8 7 7 11 12 8 9 19 25 26 25 28 38 41 43 61 73 72 85 105 117 131 149 156 149 147 156 151 137 144 157 160 163 169 175 179 179 182 186 186 188 185 180 185 190 181 178 178 175 185 188 183 176 175 194 207 205 209 213 213 214 211 206 206 207 209 213 212 211 212 214 212
353 354 357 357 358 0 1 359 357 356 356 358 1 358 354 360 8 10 10 14 16 15 14 15 20 29 30 30 35 38 40 51 69 88 99 112 119 125 141 149 138 144 154 149 130 134 152 160 163 165 167 172 179 185 188 188 189 187 187 190 184 178 185 186 175 173 182 181 181 187 196 202 202 204 208 210 209 205 202 202 205 208 211 212 211 210 210 209
352 353 355 357 359 360 0 359 357 356 354 354 359 0 356 359 8 13 13 14 15 16 15 13 15 23 29 30 30 33 39 48 74 96 100 111 119 117 118 119 121 141 151 147 134 129 144 157 161 163 165 166 174 186 192 190 191 192 191 189 182 180 191 192 182 176 173 172 179 188 189 192 196 201 206 207 205 202 201 202 204 207 209 211 212 211 209 207
352 353 353 355 358 1 0 359 356 355 352 350 356 1 359 357 4 13 18 18 17 14 13 14 15 18 24 28 28 33 48 62 90 105 106 113 120 117 115 112 120 140 149 147 141 126 137 161 166 168 172 169 166 178 191 195 198 195 189 188 191 189 187 186 183 180 171 166 175 184 183 182 187 197 204 202 198 197 199 202 204 206 208 210 211 212 211 207
351 352 352 352 356 0 1 360 356 353 353 352 353 358 359 357 357 5 13 17 18 16 14 13 14 16 21 26 29 37 59 93 105 109 113 119 121 121 123 117 122 142 153 154 147 129 139 162 165 166 171 170 166 174 186 193 197 196 191 191 194 192 185 182 186 186 174 165 171 182 187 186 185 191 196 194 193 195 198 201 203 205 207 209 210 212 212 209
350 352 352 351 354 359 1 0 357 353 353 356 354 353 357 357 353 356 360 4 10 11 8 6 8 12 19 22 27 36 59 98 106 108 120 130 130 130 130 122 124 144 160 160 152 140 144 154 158 160 167 171 172 177 187 192 193 194 195 195 195 195 191 189 191 187 174 169 174 182 189 194 192 191 192 192 192 194 198 201 202 204 206 207 209 210 210 209
348 350 352 351 351 357 1 1 360 355 351 354 354 351 354 357 353 351 352 355 2 4 3 1 0 3 13 19 24 35 60 95 104 111 123 134 137 136 137 134 129 139 155 159 154 146 144 148 152 156 164 173 177 178 182 190 194 197 199 199 199 200 198 197 197 189 177 175 178 180 187 197 200 198 195 193 193 195 198 199 200 201 203 204 206 206 205 206